RAWHIDE-1

导读

RAWHIDE-1(NORAD编号68629)是一颗低轨人造卫星,公开可查信息有限,结合 NORAD 轨道编号与命名规律推测,大概率属于美国军方或情报机构主导的保密实验性卫星项目。这类以“Rawhide”命名的卫星通常服务于电子侦察、技术验证等涉密任务,运行在近地轨道,主要承担空间电子信号监测、新兴航天技术在轨测试等隐秘任务,其具体任务参数、运营方与技术细节均未公开解密,体现了航天领域保密军事项目的典型特征。

Basic Information
目录编号:
68629
目录名称:
RAWHIDE-1
国际标识:
2026-074C
轨道中心:
EARTH
卫星名称:
RAWHIDE-1
卫星全名:
RAWHIDE-1
卫星状态:
在轨 (已飞行157 天)
发射日期:
2026-04-07 UTC
国别 :
美国 (US)
星等 :
--
This satellite is enrolled in the Space Conjunction Data Service (SCDS) and the current flight risk assessment level is: No High Risk
Orbit Information
数据来源 国际轨道数据
星历时间: 2026-09-11T22:14:08+0800
7小时前
查看轨道信息
半长轴: 6869.053km
偏心率: 0.0038664
轨道倾角: 60.021°
近地点辐角 84.020°
升交点赤经 206.455°
平近点角 276.529°
近地点: 464.357km
远地点: 517.475km
周期: 94.429分钟
每日圈数: 15.249568
Detailed Information
使用方式:
暂无
2D Orbit Map
3D Orbit Map
Orbit Altitude Analysis Chart
Orbit Inclination Analysis Chart
Orbit Comprehensive Analysis Chart
View Comprehensive Chart
Conjunction Data List
Event ID Objects TCA Miss Dist (km) Collision Risk Probability Collision Risk Index (CRI) Action
CDM_260912-061105-362406-862923
2026-09-12T
06:11:58+0000
0.655 km
远距离
7.960341E-5 中风险 0.73
CDM_260912-021706-739006-862925
2026-09-12T
02:17:32+0000
0.623 km
远距离
7.668634E-5 中风险 0.73
CDM_260912-184905-636006-862924
2026-09-12T
18:49:31+0000
1.175 km
极远距离
9.876666E-6 低风险 0.55
CDM_260912-124804-830106-862922
2026-09-12T
12:48:48+0000
1.468 km
极远距离
5.408815E-6 低风险 0.5
CDM_260912-172206-415006-862921
2026-09-12T
17:22:20+0000
1.612 km
极远距离
4.611079E-6 低风险 0.48
CDM_260911-222606-781806-862922
2026-09-11T
22:26:43+0000
1.734 km
极远距离
3.987025E-6 低风险 0.47
CDM_260913-104406-518106-862922
2026-09-13T
10:44:56+0000
1.651 km
极远距离
3.757602E-6 低风险 0.46
CDM_260913-152406-862906-965721
2026-09-13T
15:24:11+0000
1.928 km
极远距离
2.757138E-6 低风险 0.44
CDM_260913-055706-567006-862921
2026-09-13T
05:57:05+0000
2.007 km
极远距离
2.437136E-6 低风险 0.43
CDM_260912-212206-262606-862922
MBZ-SAT (62626)
2026-09-12T
21:22:48+0000
2.321 km
极远距离
1.931724E-6 低风险 0.41
Miss Distance Evolution Trend with All Objects
Collision Probability Evolution Trend with All Objects